User: anonymous   Login
Location: Mentone
(34.5413°N, 85.5351°W)
Time: 19:19:04
(UTC-05:00)
Language:

Cosmos 1703 - Orbit

View from above orbital plane
View from above orbital plane
View from above satellite
View from above satellite

Ground track
Ground track

The orbit data is extracted from the following two-line orbital elements,

1 16262U 85108A   17268.25706858  .00000238  00000-0  12622-4 0  9994
2 16262  82.4804 151.6805 0010754 293.8555  66.1547 15.10473719734006
Epoch (UTC): 25 September 2017 06:10:10
Eccentricity: 0.0010754
inclination: 82.4804°
perigee height: 527 km
apogee height: 542 km
right ascension of ascending node: 151.6805°
argument of perigee: 293.8555°
revolutions per day: 15.10473719
mean anomaly at epoch: 66.1547°
orbit number at epoch: 73400

The dashed part of the orbit path shows where the satellite is in the earth's shadow,  

DLR